Windom, MN

7:55 AM CDT on June 25, 2017 (GMT -0500)
Windom Municipal

Weather History for KMWM - May, 2013

Change the Weather History Date:

Wednesday, May 22, 2013

  Actual Average Record
Temperature  
Mean Temperature 50 °F -  
Max Temperature 55 °F 75 °F 91 °F (1970)
Min Temperature 46 °F 50 °F 39 °F (1987)
Degree Days  
Heating Degree Days 14    
Moisture  
Dew Point 47 °F    
Average Humidity 92    
Maximum Humidity 100    
Minimum Humidity 87    
Precipitation  
Precipitation 0.00 in - - ()
Sea Level Pressure  
Sea Level Pressure 29.79 in    
Wind  
Wind Speed 12 mph (North)    
Max Wind Speed 20 mph    
Max Gust Speed 25 mph    
Visibility 8 miles    
Events Fog , Rain    
Averages and records for this station are not official NWS values.
T = Trace of Precipitation, MM = Missing Value Source: NWS Daily Summary

Daily Weather History Graph

Daily Weather History Graph

Search for Another Location

Airport or City:

Trip Planner

Search our weather history database for the weather conditions in past years. The results will help you decide how hot, cold, wet, or windy it might be!

Date:

Astronomy

May. 22, 2013 Rise Set
Actual Time 5:47 AM CDT 8:47 PM CDT
Civil Twilight 5:13 AM CDT 9:21 PM CDT
Nautical Twilight 4:29 AM CDT 10:05 PM CDT
Astronomical Twilight 3:38 AM CDT 10:57 PM CDT
Moon 6:06 PM CDT (5/22) 3:58 AM CDT (5/22)
Length of Visible Light 16h 08m
Length of Day
14h 59m
Waxing Gibbous, 91% of the Moon is Illuminated
May 22
Waxing Gibbous
May 24
Full
May 31
Last Quarter
Jun 8
New
Jun 16
First Quarter

Hourly Weather History & Observations

Time (CDT) Temp. Windchill Dew Point Humidity Pressure Visibility Wind Dir Wind Speed Gust Speed Precip Events Conditions
12:12 AM 55.4 °F - 51.8 °F 88% 29.67 in 10.0 mi North 4.6 mph - N/A   Overcast
12:32 AM 55.4 °F - 51.8 °F 88% 29.68 in 10.0 mi North 6.9 mph - N/A   Overcast
12:53 AM 53.6 °F - 51.8 °F 94% 29.68 in 3.0 mi NNE 10.4 mph - N/A Rain Light Rain
1:12 AM 53.6 °F - 51.8 °F 94% 29.68 in 0.5 mi NNE 11.5 mph - N/A   Drizzle
1:32 AM 53.6 °F - 51.8 °F 94% 29.68 in 1.2 mi North 9.2 mph - N/A   Light Drizzle
1:53 AM 51.8 °F - 50.0 °F 94% 29.68 in 0.2 mi North 10.4 mph 16.1 mph N/A   Drizzle
2:12 AM 51.8 °F - 50.0 °F 94% 29.68 in 0.5 mi North 11.5 mph - N/A   Drizzle
2:32 AM 50.0 °F - 48.2 °F 94% 29.69 in 0.5 mi North 13.8 mph 17.3 mph N/A   Drizzle
2:53 AM 48.2 °F - 48.2 °F 100% 29.69 in 0.2 mi North 12.7 mph - N/A Rain Rain
3:12 AM 48.2 °F - 48.2 °F 100% 29.69 in 0.2 mi North 12.7 mph - N/A   Drizzle
3:32 AM 48.2 °F - 48.2 °F 100% 29.70 in 0.2 mi North 12.7 mph - N/A   Drizzle
3:53 AM 48.2 °F - 46.4 °F 93% 29.70 in 0.5 mi NNW 12.7 mph - N/A Fog Fog
4:12 AM 46.4 °F 41.1 °F 46.4 °F 100% 29.70 in 7.0 mi North 11.5 mph - N/A   Light Drizzle
4:32 AM 46.4 °F 41.1 °F 46.4 °F 100% 29.71 in 10.0 mi NNW 11.5 mph - N/A   Overcast
4:52 AM 46.4 °F 41.1 °F 46.4 °F 100% 29.71 in 10.0 mi NNW 11.5 mph - N/A   Drizzle
5:12 AM 46.4 °F 41.1 °F 46.4 °F 100% 29.71 in 10.0 mi NNW 11.5 mph - N/A   Drizzle
5:33 AM 46.4 °F 40.4 °F 46.4 °F 100% 29.71 in 10.0 mi North 13.8 mph - N/A Rain Light Rain
5:52 AM 46.4 °F 41.5 °F 46.4 °F 100% 29.70 in 10.0 mi North 10.4 mph - N/A Rain Light Rain
6:12 AM 46.4 °F 40.7 °F 44.6 °F 93% 29.71 in 10.0 mi North 12.7 mph - N/A   Light Drizzle
6:33 AM 46.4 °F 39.8 °F 44.6 °F 93% 29.71 in 5.0 mi NNW 16.1 mph - N/A   Drizzle
6:52 AM 46.4 °F 40.4 °F 44.6 °F 93% 29.71 in 7.0 mi North 13.8 mph - N/A   Light Drizzle
7:12 AM 46.4 °F 40.4 °F 44.6 °F 93% 29.72 in 7.0 mi North 13.8 mph - N/A   Drizzle
7:33 AM 46.4 °F 40.1 °F 44.6 °F 93% 29.72 in 10.0 mi North 15.0 mph - N/A Rain Light Rain
7:52 AM 46.4 °F 42.4 °F 44.6 °F 93% 29.72 in 10.0 mi North 8.1 mph - N/A Rain Light Rain
8:12 AM 46.4 °F 41.1 °F 44.6 °F 93% 29.73 in 10.0 mi North 11.5 mph - N/A Rain Light Rain
8:33 AM 46.4 °F 40.7 °F 44.6 °F 93% 29.73 in 7.0 mi NNW 12.7 mph - N/A Rain Light Rain
8:52 AM 46.4 °F 40.4 °F 44.6 °F 93% 29.73 in 10.0 mi North 13.8 mph - N/A Rain Light Rain
9:12 AM 46.4 °F 40.1 °F 44.6 °F 93% 29.74 in 10.0 mi North 15.0 mph 18.4 mph N/A Rain Light Rain
9:33 AM 46.4 °F 39.8 °F 44.6 °F 93% 29.74 in 10.0 mi North 16.1 mph - N/A Rain Light Rain
9:52 AM 46.4 °F 40.4 °F 44.6 °F 93% 29.74 in 10.0 mi North 13.8 mph - N/A Rain Light Rain
10:12 AM 48.2 °F - 44.6 °F 87% 29.74 in 10.0 mi North 17.3 mph - N/A Rain Light Rain
10:33 AM 48.2 °F - 44.6 °F 87% 29.75 in 10.0 mi NNW 16.1 mph - N/A Rain Light Rain
10:52 AM 48.2 °F - 46.4 °F 93% 29.76 in 10.0 mi NNW 15.0 mph - N/A Rain Light Rain
11:12 AM 48.2 °F - 46.4 °F 93% 29.76 in 10.0 mi NNW 13.8 mph - N/A Rain Light Rain
11:33 AM 48.2 °F - 46.4 °F 93% 29.76 in 10.0 mi North 11.5 mph 17.3 mph N/A Rain Light Rain
11:52 AM 48.2 °F - 46.4 °F 93% 29.77 in 10.0 mi North 16.1 mph - N/A Rain Light Rain
12:12 PM 48.2 °F - 46.4 °F 93% 29.77 in 10.0 mi North 15.0 mph - N/A Rain Light Rain
12:33 PM 48.2 °F - 46.4 °F 93% 29.78 in 10.0 mi NNW 10.4 mph - N/A Rain Light Rain
12:52 PM 48.2 °F - 46.4 °F 93% 29.78 in 10.0 mi NNW 13.8 mph - N/A Rain Light Rain
1:12 PM 48.2 °F - 46.4 °F 93% 29.78 in 10.0 mi North 13.8 mph - N/A Rain Light Rain
1:33 PM 50.0 °F - 46.4 °F 87% 29.79 in 10.0 mi NNW 15.0 mph - N/A   Overcast
1:52 PM 50.0 °F - 46.4 °F 87% 29.79 in 10.0 mi NNW 15.0 mph - N/A   Light Drizzle
2:12 PM 50.0 °F - 48.2 °F 94% 29.80 in 10.0 mi NNW 16.1 mph - N/A Rain Light Rain
2:33 PM 51.8 °F - 48.2 °F 88% 29.80 in 10.0 mi NNW 16.1 mph - N/A   Light Drizzle
2:52 PM 51.8 °F - 48.2 °F 88% 29.80 in 10.0 mi North 17.3 mph 23.0 mph N/A Rain Light Rain
3:12 PM 51.8 °F - 48.2 °F 88% 29.81 in 10.0 mi NNW 15.0 mph - N/A   Light Drizzle
3:33 PM 51.8 °F - 48.2 °F 88% 29.81 in 10.0 mi North 16.1 mph - N/A Rain Light Rain
3:52 PM 51.8 °F - 48.2 °F 88% 29.82 in 10.0 mi North 19.6 mph - N/A Rain Light Rain
4:12 PM 51.8 °F - 48.2 °F 88% 29.82 in 7.0 mi North 17.3 mph - N/A Rain Light Rain
4:33 PM 51.8 °F - 48.2 °F 88% 29.82 in 4.0 mi North 17.3 mph 23.0 mph N/A   Light Drizzle
4:52 PM 51.8 °F - 50.0 °F 94% 29.83 in 3.0 mi North 16.1 mph - N/A   Light Drizzle
5:12 PM 51.8 °F - 48.2 °F 88% 29.84 in 7.0 mi North 16.1 mph 24.2 mph N/A   Light Drizzle
5:33 PM 51.8 °F - 48.2 °F 88% 29.85 in 10.0 mi North 17.3 mph 21.9 mph N/A   Overcast
5:52 PM 51.8 °F - 48.2 °F 88% 29.85 in 10.0 mi North 18.4 mph 23.0 mph N/A   Overcast
6:12 PM 51.8 °F - 48.2 °F 88% 29.85 in 10.0 mi North 17.3 mph 20.7 mph N/A   Overcast
6:33 PM 51.8 °F - 48.2 °F 88% 29.86 in 10.0 mi North 19.6 mph - N/A   Overcast
6:52 PM 51.8 °F - 48.2 °F 88% 29.87 in 10.0 mi North 18.4 mph - N/A   Overcast
7:12 PM 50.0 °F - 48.2 °F 94% 29.88 in 10.0 mi North 19.6 mph 25.3 mph N/A   Overcast
7:33 PM 50.0 °F - 48.2 °F 94% 29.89 in 10.0 mi North 16.1 mph 21.9 mph N/A   Overcast
7:52 PM 50.0 °F - 48.2 °F 94% 29.90 in 10.0 mi North 13.8 mph - N/A   Overcast
8:12 PM 50.0 °F - 48.2 °F 94% 29.90 in 10.0 mi North 16.1 mph 21.9 mph N/A   Overcast
8:33 PM 50.0 °F - 46.4 °F 87% 29.92 in 10.0 mi North 18.4 mph - N/A   Overcast
8:52 PM 50.0 °F - 46.4 °F 87% 29.92 in 10.0 mi North 17.3 mph 24.2 mph N/A   Overcast
9:12 PM 48.2 °F - 46.4 °F 93% 29.93 in 10.0 mi North 17.3 mph 23.0 mph N/A   Overcast
9:33 PM 50.0 °F - 46.4 °F 87% 29.94 in 10.0 mi North 13.8 mph 21.9 mph N/A   Overcast
9:52 PM 50.0 °F - 46.4 °F 87% 29.95 in 10.0 mi North 12.7 mph - N/A   Overcast
10:12 PM 50.0 °F - 46.4 °F 87% 29.96 in 10.0 mi North 15.0 mph 18.4 mph N/A   Overcast
10:33 PM 48.2 °F - 46.4 °F 93% 29.97 in 10.0 mi North 15.0 mph - N/A   Overcast
10:52 PM 50.0 °F - 46.4 °F 87% 29.97 in 10.0 mi North 15.0 mph - N/A   Overcast
11:12 PM 50.0 °F - 46.4 °F 87% 29.98 in 10.0 mi NNE 17.3 mph 21.9 mph N/A   Overcast
11:33 PM 50.0 °F - 46.4 °F 87% 29.99 in 10.0 mi NNE 15.0 mph 24.2 mph N/A   Overcast
11:52 PM 50.0 °F - 46.4 °F 87% 29.99 in 10.0 mi NNE 16.1 mph 21.9 mph N/A   Overcast